QPF
0.01 0.01 0.01 0.02 0.01 0.01 0.02 0.02 0.02 0.01 0.00 0.00 0.01 0.01 0.00 0.00 0.00 0.00 0.00 0.00 0.00 0.00 0.00 0.00 0.00 0.00 0.00 0.01 0.01 0.00 0.00 0.00 0.00 0.01 0.01 0.01 0.01 0.00 0.00 0.00 0.00 0.00 0.00 0.00
0.01 0.00 0.00 0.01 0.01 0.00 0.00 0.01 0.01 0.00 0.00 0.00 0.00 0.00 0.00 0.00 0.00 0.00 0.00 0.00 0.00 0.00 0.00 0.00 0.00 0.00 0.00 0.01 0.01 0.00 0.01 0.01 0.01 0.01 0.01 0.01 0.01 0.01 0.00 0.00 0.00 0.00 0.00 0.00
0.02 0.01 0.01 0.02 0.01 0.00 0.00 0.00 0.00 0.00 0.00 0.00 0.00 0.00 0.00 0.00 0.00 0.00 0.00 0.00 0.00 0.00 0.00 0.00 0.00 0.00 0.00 0.00 0.01 0.01 0.01 0.02 0.02 0.02 0.02 0.01 0.01 0.01 0.00 0.00 0.00 0.00 0.00 0.00
0.03 0.02 0.02 0.01 0.00 0.00 0.00 0.00 0.00 0.00 0.00 0.00 0.00 0.00 0.00 0.00 0.00 0.00 0.00 0.00 0.00 0.00 0.00 0.00 0.00 0.00 0.00 0.00 0.01 0.01 0.01 0.02 0.03 0.02 0.02 0.02 0.01 0.01 0.00 0.00 0.00 0.00 0.00 0.00
0.05 0.03 0.01 0.00 0.00 0.00 0.00 0.00 0.00 0.00 0.00 0.00 0.00 0.00 0.00 0.00 0.00 0.00 0.00 0.00 0.00 0.00 0.00 0.00 0.00 0.00 0.00 0.00 0.01 0.01 0.01 0.02 0.02 0.03 0.03 0.02 0.01 0.01 0.01 0.00 0.00 0.00 0.00 0.00
0.05 0.04 0.02 0.01 0.00 0.00 0.01 0.02 0.01 0.01 0.01 0.00 0.00 0.01 0.00 0.00 0.00 0.00 0.00 0.00 0.00 0.00 0.00 0.00 0.00 0.00 0.00 0.00 0.00 0.01 0.01 0.02 0.02 0.02 0.02 0.02 0.02 0.01 0.01 0.00 0.00 0.00 0.00 0.00
0.03 0.03 0.02 0.01 0.00 0.00 0.02 0.02 0.01 0.01 0.01 0.01 0.01 0.01 0.00 0.00 0.00 0.00 0.00 0.00 0.00 0.00 0.00 0.00 0.00 0.00 0.00 0.00 0.00 0.00 0.01 0.02 0.02 0.02 0.02 0.02 0.02 0.01 0.01 0.01 0.01 0.01 0.00 0.01
0.03 0.03 0.02 0.01 0.00 0.01 0.01 0.01 0.01 0.01 0.01 0.01 0.01 0.00 0.00 0.00 0.01 0.01 0.00 0.00 0.00 0.00 0.00 0.00 0.00 0.00 0.00 0.00 0.00 0.00 0.01 0.02 0.02 0.02 0.02 0.02 0.02 0.02 0.01 0.01 0.01 0.01 0.01 0.01
0.02 0.01 0.01 0.00 0.00 0.01 0.01 0.01 0.01 0.01 0.01 0.02 0.01 0.01 0.01 0.01 0.01 0.01 0.01 0.00 0.00 0.00 0.00 0.00 0.00 0.00 0.00 0.00 0.00 0.01 0.01 0.01 0.02 0.02 0.02 0.01 0.01 0.01 0.01 0.01 0.01 0.01 0.01 0.01
0.01 0.01 0.00 0.00 0.00 0.01 0.01 0.01 0.02 0.02 0.01 0.01 0.01 0.01 0.01 0.01 0.01 0.01 0.01 0.00 0.00 0.00 0.00 0.00 0.00 0.00 0.00 0.00 0.01 0.01 0.01 0.01 0.02 0.02 0.02 0.01 0.01 0.01 0.01 0.01 0.01 0.01 0.01 0.01
0.01 0.01 0.01 0.00 0.00 0.01 0.01 0.01 0.01 0.01 0.01 0.01 0.01 0.01 0.01 0.01 0.01 0.01 0.01 0.01 0.00 0.00 0.00 0.00 0.00 0.01 0.01 0.01 0.01 0.01 0.01 0.01 0.01 0.01 0.01 0.01 0.01 0.01 0.01 0.01 0.01 0.01 0.01 0.01
0.01 0.01 0.01 0.01 0.00 0.00 0.01 0.01 0.01 0.01 0.01 0.01 0.01 0.01 0.01 0.01 0.01 0.01 0.01 0.01 0.01 0.01 0.01 0.01 0.01 0.01 0.01 0.01 0.01 0.01 0.01 0.01 0.01 0.01 0.01 0.01 0.01 0.01 0.01 0.01 0.01 0.01 0.01 0.01
0.01 0.00 0.01 0.00 0.00 0.01 0.01 0.01 0.01 0.01 0.01 0.01 0.02 0.01 0.01 0.01 0.01 0.01 0.01 0.01 0.01 0.01 0.01 0.01 0.01 0.01 0.01 0.02 0.02 0.01 0.01 0.01 0.01 0.01 0.01 0.01 0.01 0.01 0.01 0.01 0.01 0.01 0.01 0.01
0.00 0.00 0.01 0.00 0.01 0.01 0.01 0.01 0.01 0.01 0.01 0.01 0.01 0.01 0.01 0.01 0.01 0.01 0.01 0.01 0.01 0.01 0.01 0.01 0.01 0.01 0.01 0.02 0.01 0.01 0.01 0.01 0.01 0.01 0.01 0.01 0.01 0.01 0.01 0.01 0.01 0.01 0.01 0.01
0.00 0.00 0.00 0.00 0.01 0.01 0.00 0.01 0.01 0.01 0.01 0.01 0.01 0.01 0.01 0.01 0.01 0.01 0.01 0.01 0.01 0.01 0.01 0.01 0.01 0.01 0.01 0.01 0.01 0.01 0.01 0.01 0.01 0.01 0.01 0.01 0.01 0.01 0.01 0.01 0.02 0.02 0.01 0.01
0.00 0.00 0.00 0.00 0.00 0.00 0.00 0.01 0.01 0.01 0.00 0.01 0.01 0.01 0.01 0.01 0.01 0.00 0.00 0.01 0.01 0.01 0.01 0.01 0.01 0.01 0.01 0.01 0.01 0.01 0.01 0.01 0.01 0.01 0.01 0.01 0.01 0.01 0.01 0.01 0.02 0.02 0.02 0.02
0.00 0.00 0.00 0.00 0.00 0.00 0.00 0.01 0.01 0.01 0.00 0.00 0.00 0.01 0.01 0.01 0.00 0.00 0.01 0.01 0.01 0.01 0.01 0.01 0.01 0.01 0.01 0.01 0.01 0.01 0.01 0.01 0.02 0.02 0.02 0.02 0.02 0.02 0.02 0.01 0.02 0.02 0.02 0.02
0.00 0.00 0.00 0.00 0.00 0.00 0.00 0.01 0.01 0.01 0.01 0.01 0.01 0.01 0.01 0.01 0.01 0.01 0.01 0.01 0.01 0.01 0.01 0.01 0.01 0.01 0.01 0.01 0.01 0.01 0.01 0.01 0.02 0.02 0.02 0.02 0.02 0.02 0.02 0.02 0.01 0.01 0.01 0.01
0.00 0.00 0.00 0.00 0.00 0.00 0.00 0.01 0.01 0.01 0.02 0.01 0.01 0.01 0.01 0.01 0.01 0.01 0.01 0.01 0.01 0.01 0.01 0.01 0.01 0.01 0.01 0.01 0.01 0.01 0.01 0.01 0.01 0.02 0.02 0.02 0.02 0.02 0.02 0.02 0.01 0.01 0.01 0.01
0.00 0.00 0.00 0.00 0.00 0.00 0.01 0.01 0.01 0.01 0.01 0.01 0.01 0.01 0.01 0.01 0.01 0.01 0.01 0.01 0.01 0.01 0.01 0.01 0.01 0.01 0.01 0.01 0.01 0.01 0.01 0.01 0.02 0.02 0.02 0.02 0.02 0.02 0.02 0.02 0.01 0.01 0.01 0.01
0.01 0.00 0.00 0.00 0.01 0.01 0.01 0.01 0.01 0.01 0.01 0.01 0.01 0.01 0.01 0.02 0.02 0.01 0.01 0.01 0.01 0.01 0.01 0.01 0.01 0.01 0.01 0.01 0.01 0.01 0.01 0.01 0.01 0.02 0.02 0.02 0.02 0.02 0.02 0.02 0.02 0.01 0.01 0.01
0.01 0.01 0.01 0.01 0.01 0.01 0.01 0.01 0.01 0.01 0.01 0.01 0.01 0.02 0.02 0.02 0.01 0.01 0.01 0.01 0.01 0.01 0.01 0.01 0.01 0.01 0.01 0.01 0.01 0.01 0.01 0.01 0.01 0.02 0.02 0.02 0.02 0.02 0.02 0.02 0.02 0.02 0.02 0.02
0.00 0.01 0.01 0.01 0.01 0.01 0.01 0.01 0.01 0.01 0.01 0.01 0.01 0.01 0.01 0.01 0.01 0.01 0.01 0.01 0.01 0.01 0.01 0.01 0.01 0.01 0.01 0.01 0.01 0.02 0.02 0.02 0.02 0.02 0.02 0.03 0.03 0.02 0.02 0.02 0.02 0.02 0.02 0.02
0.01 0.01 0.01 0.01 0.01 0.01 0.01 0.01 0.01 0.01 0.01 0.01 0.01 0.01 0.01 0.01 0.01 0.01 0.01 0.01 0.01 0.01 0.01 0.01 0.01 0.02 0.02 0.02 0.02 0.02 0.02 0.02 0.02 0.02 0.03 0.03 0.03 0.03 0.03 0.03 0.03 0.03 0.02 0.03
0.01 0.01 0.01 0.01 0.01 0.01 0.01 0.01 0.01 0.01 0.01 0.01 0.01 0.01 0.01 0.01 0.01 0.00 0.00 0.01 0.01 0.01 0.01 0.01 0.02 0.02 0.02 0.02 0.02 0.02 0.02 0.03 0.03 0.03 0.03 0.03 0.03 0.03 0.04 0.03 0.03 0.03 0.03 0.03
0.01 0.01 0.01 0.01 0.01 0.01 0.01 0.01 0.01 0.01 0.01 0.01 0.01 0.01 0.01 0.00 0.00 0.00 0.01 0.01 0.01 0.01 0.01 0.02 0.02 0.02 0.02 0.02 0.02 0.02 0.02 0.03 0.03 0.03 0.03 0.04 0.04 0.04 0.04 0.04 0.04 0.04 0.03 0.03
0.01 0.01 0.01 0.01 0.01 0.01 0.01 0.01 0.01 0.01 0.01 0.01 0.01 0.00 0.00 0.00 0.00 0.00 0.01 0.01 0.01 0.01 0.01 0.02 0.02 0.02 0.02 0.02 0.02 0.02 0.02 0.02 0.03 0.03 0.03 0.04 0.04 0.04 0.04 0.04 0.04 0.04 0.03 0.03
MSLP
1011.74 1011.84 1011.91 1011.88 1011.70 1011.33 1010.76 1010.04 1009.21 1008.37 1007.59 1006.97 1006.55 1006.36 1006.40 1006.61 1006.95 1007.35 1007.74 1008.08 1008.34 1008.52 1008.65 1008.75 1008.86 1009.00 1009.18 1009.38 1009.59 1009.77 1009.91 1009.97 1009.97 1009.92 1009.86 1009.83 1009.86 1009.98 1010.21 1010.54 1010.95 1011.39 1011.83 1012.23
1011.16 1011.23 1011.25 1011.19 1010.98 1010.60 1010.06 1009.39 1008.65 1007.92 1007.26 1006.75 1006.44 1006.33 1006.42 1006.66 1007.00 1007.38 1007.74 1008.05 1008.29 1008.46 1008.59 1008.71 1008.83 1008.98 1009.15 1009.34 1009.52 1009.66 1009.74 1009.74 1009.68 1009.58 1009.47 1009.40 1009.40 1009.50 1009.71 1010.03 1010.41 1010.83 1011.25 1011.63
1010.52 1010.53 1010.50 1010.39 1010.15 1009.77 1009.26 1008.65 1007.99 1007.36 1006.81 1006.41 1006.20 1006.17 1006.31 1006.58 1006.92 1007.29 1007.63 1007.92 1008.15 1008.31 1008.44 1008.55 1008.67 1008.80 1008.95 1009.10 1009.24 1009.33 1009.36 1009.32 1009.23 1009.10 1008.98 1008.91 1008.91 1009.01 1009.22 1009.53 1009.89 1010.29 1010.68 1011.02
1009.89 1009.83 1009.73 1009.57 1009.30 1008.92 1008.43 1007.88 1007.31 1006.77 1006.34 1006.04 1005.92 1005.96 1006.15 1006.44 1006.79 1007.15 1007.48 1007.75 1007.96 1008.10 1008.20 1008.29 1008.37 1008.46 1008.56 1008.65 1008.73 1008.77 1008.76 1008.69 1008.59 1008.47 1008.37 1008.33 1008.37 1008.50 1008.73 1009.04 1009.39 1009.77 1010.12 1010.43
1009.31 1009.16 1008.99 1008.78 1008.49 1008.11 1007.67 1007.18 1006.70 1006.26 1005.93 1005.73 1005.69 1005.79 1006.01 1006.32 1006.67 1007.01 1007.32 1007.56 1007.73 1007.84 1007.90 1007.93 1007.95 1007.97 1008.00 1008.02 1008.02 1008.00 1007.95 1007.87 1007.78 1007.69 1007.65 1007.66 1007.75 1007.94 1008.20 1008.53 1008.88 1009.24 1009.57 1009.84
1008.78 1008.54 1008.31 1008.05 1007.75 1007.40 1007.01 1006.60 1006.22 1005.89 1005.66 1005.54 1005.57 1005.71 1005.95 1006.26 1006.59 1006.90 1007.17 1007.36 1007.48 1007.53 1007.53 1007.49 1007.43 1007.37 1007.30 1007.24 1007.16 1007.09 1007.00 1006.91 1006.84 1006.80 1006.81 1006.89 1007.06 1007.30 1007.61 1007.97 1008.33 1008.68 1008.99 1009.24
1008.28 1007.95 1007.66 1007.38 1007.09 1006.79 1006.48 1006.17 1005.89 1005.67 1005.53 1005.50 1005.57 1005.74 1005.98 1006.26 1006.55 1006.80 1007.01 1007.13 1007.18 1007.16 1007.08 1006.96 1006.82 1006.67 1006.51 1006.36 1006.21 1006.08 1005.96 1005.87 1005.81 1005.81 1005.89 1006.04 1006.28 1006.58 1006.94 1007.32 1007.70 1008.05 1008.35 1008.60
1007.75 1007.36 1007.03 1006.76 1006.51 1006.28 1006.07 1005.87 1005.70 1005.59 1005.54 1005.56 1005.66 1005.83 1006.04 1006.27 1006.49 1006.67 1006.79 1006.84 1006.81 1006.71 1006.55 1006.35 1006.13 1005.90 1005.66 1005.44 1005.23 1005.04 1004.89 1004.79 1004.75 1004.79 1004.90 1005.11 1005.40 1005.75 1006.15 1006.56 1006.95 1007.31 1007.61 1007.86
1007.16 1006.74 1006.42 1006.18 1006.00 1005.86 1005.75 1005.67 1005.62 1005.60 1005.62 1005.69 1005.80 1005.94 1006.09 1006.25 1006.37 1006.45 1006.47 1006.43 1006.31 1006.14 1005.91 1005.65 1005.37 1005.07 1004.78 1004.50 1004.24 1004.02 1003.85 1003.74 1003.70 1003.74 1003.89 1004.12 1004.43 1004.80 1005.22 1005.65 1006.05 1006.42 1006.74 1007.01
1006.54 1006.12 1005.83 1005.65 1005.55 1005.51 1005.52 1005.55 1005.60 1005.67 1005.74 1005.83 1005.92 1006.00 1006.08 1006.13 1006.14 1006.11 1006.02 1005.88 1005.68 1005.44 1005.16 1004.85 1004.53 1004.20 1003.87 1003.57 1003.28 1003.04 1002.85 1002.72 1002.67 1002.71 1002.84 1003.07 1003.38 1003.75 1004.16 1004.59 1005.00 1005.38 1005.72 1006.01
1005.93 1005.55 1005.32 1005.21 1005.21 1005.28 1005.38 1005.51 1005.64 1005.76 1005.86 1005.93 1005.98 1005.99 1005.96 1005.89 1005.77 1005.62 1005.42 1005.18 1004.90 1004.60 1004.28 1003.95 1003.61 1003.28 1002.95 1002.64 1002.35 1002.09 1001.88 1001.74 1001.66 1001.67 1001.78 1001.97 1002.25 1002.59 1002.98 1003.39 1003.80 1004.20 1004.56 1004.90
1005.44 1005.13 1004.98 1004.96 1005.04 1005.19 1005.38 1005.57 1005.74 1005.88 1005.97 1006.00 1005.97 1005.88 1005.73 1005.53 1005.28 1005.00 1004.68 1004.35 1004.00 1003.65 1003.30 1002.96 1002.63 1002.30 1001.99 1001.69 1001.41 1001.15 1000.93 1000.77 1000.66 1000.63 1000.69 1000.83 1001.06 1001.36 1001.72 1002.11 1002.52 1002.92 1003.32 1003.71
1005.16 1004.95 1004.89 1004.95 1005.09 1005.30 1005.53 1005.74 1005.92 1006.03 1006.07 1006.03 1005.90 1005.69 1005.42 1005.08 1004.70 1004.29 1003.86 1003.44 1003.02 1002.63 1002.26 1001.91 1001.58 1001.28 1000.98 1000.70 1000.43 1000.18 999.96 999.77 999.63 999.56 999.57 999.66 999.83 1000.09 1000.41 1000.78 1001.19 1001.62 1002.06 1002.51
1005.18 1005.07 1005.09 1005.20 1005.39 1005.62 1005.84 1006.03 1006.16 1006.22 1006.18 1006.04 1005.80 1005.46 1005.05 1004.58 1004.08 1003.55 1003.02 1002.51 1002.02 1001.58 1001.18 1000.82 1000.50 1000.20 999.92 999.65 999.39 999.14 998.91 998.70 998.54 998.43 998.39 998.44 998.57 998.79 999.09 999.46 999.89 1000.36 1000.85 1001.36
1005.51 1005.49 1005.57 1005.72 1005.91 1006.11 1006.29 1006.42 1006.47 1006.42 1006.27 1006.01 1005.65 1005.19 1004.66 1004.07 1003.44 1002.81 1002.18 1001.59 1001.04 1000.55 1000.11 999.72 999.38 999.07 998.79 998.52 998.25 998.00 997.75 997.53 997.35 997.22 997.16 997.18 997.29 997.50 997.81 998.20 998.66 999.18 999.74 1000.34
1006.08 1006.14 1006.26 1006.42 1006.58 1006.71 1006.80 1006.83 1006.76 1006.59 1006.31 1005.93 1005.44 1004.87 1004.22 1003.53 1002.81 1002.09 1001.39 1000.72 1000.11 999.56 999.07 998.64 998.25 997.91 997.60 997.30 997.02 996.74 996.48 996.25 996.05 995.91 995.85 995.88 996.01 996.24 996.57 997.01 997.53 998.12 998.77 999.45
1006.79 1006.91 1007.04 1007.17 1007.27 1007.31 1007.28 1007.17 1006.96 1006.65 1006.24 1005.73 1005.13 1004.46 1003.72 1002.95 1002.16 1001.38 1000.62 999.90 999.23 998.61 998.06 997.57 997.13 996.73 996.36 996.02 995.69 995.39 995.11 994.86 994.66 994.53 994.49 994.55 994.72 995.00 995.40 995.91 996.51 997.19 997.92 998.69
1007.51 1007.65 1007.77 1007.84 1007.85 1007.77 1007.61 1007.34 1006.99 1006.53 1005.99 1005.37 1004.67 1003.92 1003.13 1002.31 1001.48 1000.66 999.86 999.10 998.38 997.72 997.10 996.54 996.02 995.55 995.11 994.70 994.32 993.97 993.66 993.41 993.21 993.11 993.10 993.21 993.44 993.80 994.28 994.88 995.58 996.35 997.18 998.04
1008.09 1008.23 1008.31 1008.31 1008.21 1008.00 1007.68 1007.27 1006.77 1006.18 1005.52 1004.80 1004.03 1003.22 1002.40 1001.56 1000.72 999.89 999.08 998.30 997.56 996.85 996.18 995.55 994.95 994.40 993.88 993.39 992.95 992.55 992.21 991.95 991.77 991.68 991.72 991.89 992.20 992.65 993.23 993.92 994.72 995.59 996.52 997.46
1008.45 1008.57 1008.60 1008.50 1008.28 1007.95 1007.49 1006.94 1006.30 1005.59 1004.83 1004.03 1003.21 1002.38 1001.54 1000.71 999.88 999.07 998.27 997.49 996.73 995.99 995.28 994.59 993.93 993.30 992.70 992.15 991.65 991.20 990.83 990.56 990.38 990.34 990.42 990.66 991.05 991.58 992.25 993.04 993.92 994.89 995.89 996.90
1008.58 1008.65 1008.61 1008.43 1008.10 1007.64 1007.07 1006.39 1005.64 1004.83 1003.99 1003.13 1002.28 1001.43 1000.60 999.78 998.98 998.20 997.42 996.66 995.90 995.15 994.41 993.68 992.97 992.28 991.63 991.01 990.46 989.98 989.59 989.31 989.15 989.13 989.27 989.56 990.02 990.62 991.37 992.24 993.20 994.22 995.29 996.36
1008.50 1008.52 1008.41 1008.15 1007.73 1007.17 1006.49 1005.72 1004.88 1004.00 1003.09 1002.20 1001.32 1000.46 999.64 998.84 998.06 997.31 996.56 995.82 995.07 994.32 993.57 992.82 992.08 991.36 990.67 990.02 989.44 988.95 988.55 988.27 988.13 988.15 988.32 988.67 989.17 989.84 990.64 991.56 992.56 993.63 994.73 995.83
1008.29 1008.26 1008.09 1007.76 1007.27 1006.64 1005.89 1005.05 1004.15 1003.21 1002.27 1001.33 1000.43 999.57 998.74 997.95 997.19 996.45 995.72 994.99 994.26 993.52 992.77 992.02 991.28 990.55 989.85 989.21 988.63 988.14 987.76 987.50 987.39 987.44 987.65 988.03 988.57 989.27 990.10 991.04 992.06 993.15 994.25 995.35
1008.03 1007.96 1007.74 1007.37 1006.84 1006.17 1005.38 1004.50 1003.56 1002.59 1001.61 1000.65 999.72 998.83 997.99 997.18 996.41 995.67 994.93 994.21 993.48 992.75 992.02 991.29 990.57 989.86 989.19 988.58 988.04 987.58 987.24 987.03 986.96 987.05 987.29 987.70 988.26 988.97 989.80 990.73 991.75 992.81 993.90 994.98
1007.81 1007.71 1007.46 1007.07 1006.52 1005.83 1005.03 1004.14 1003.19 1002.20 1001.20 1000.21 999.25 998.32 997.44 996.60 995.79 995.01 994.26 993.52 992.79 992.07 991.35 990.65 989.97 989.32 988.71 988.16 987.68 987.30 987.03 986.88 986.86 986.99 987.27 987.70 988.27 988.96 989.77 990.68 991.65 992.67 993.71 994.75
1007.66 1007.54 1007.28 1006.89 1006.35 1005.68 1004.89 1004.01 1003.06 1002.07 1001.05 1000.03 999.03 998.05 997.12 996.21 995.35 994.52 993.73 992.96 992.22 991.50 990.81 990.15 989.53 988.95 988.42 987.97 987.59 987.30 987.12 987.05 987.10 987.28 987.59 988.04 988.60 989.27 990.04 990.89 991.80 992.75 993.73 994.71
1007.60 1007.47 1007.22 1006.85 1006.34 1005.70 1004.94 1004.09 1003.16 1002.17 1001.14 1000.10 999.05 998.03 997.02 996.05 995.12 994.23 993.38 992.58 991.82 991.12 990.45 989.84 989.29 988.80 988.37 988.03 987.77 987.59 987.51 987.54 987.66 987.90 988.24 988.68 989.23 989.86 990.58 991.36 992.19 993.06 993.96 994.86
Thickness
5467 5476 5477 5477 5478 5478 5475 5480 5482 5499 5505 5515 5514 5513 5512 5511 5509 5506 5503 5501 5499 5496 5493 5491 5489 5487 5485 5483 5481 5479 5477 5475 5474 5473 5472 5470 5469 5469 5468 5466 5465 5464 5463 5461
5455 5466 5467 5469 5477 5478 5479 5480 5484 5490 5498 5511 5510 5508 5506 5503 5502 5500 5497 5495 5493 5490 5487 5484 5481 5479 5477 5474 5472 5470 5468 5466 5465 5464 5463 5461 5461 5460 5459 5458 5457 5455 5454 5453
5447 5455 5454 5456 5476 5476 5477 5483 5484 5484 5497 5502 5499 5497 5496 5495 5494 5491 5489 5486 5484 5482 5479 5476 5474 5472 5469 5466 5464 5462 5460 5458 5456 5455 5454 5453 5452 5451 5450 5449 5448 5447 5445 5444
5434 5439 5436 5477 5487 5486 5479 5481 5483 5486 5490 5490 5488 5487 5487 5487 5485 5482 5480 5477 5475 5473 5471 5469 5466 5464 5461 5458 5456 5453 5451 5449 5448 5446 5446 5445 5443 5442 5441 5440 5440 5439 5437 5435
5427 5433 5450 5473 5478 5477 5471 5474 5481 5479 5481 5480 5479 5477 5476 5479 5477 5473 5471 5468 5466 5464 5462 5460 5458 5455 5452 5449 5447 5444 5443 5441 5439 5438 5437 5435 5434 5434 5432 5432 5432 5430 5429 5427
5422 5426 5438 5469 5471 5474 5469 5464 5477 5475 5473 5472 5468 5460 5465 5469 5467 5464 5461 5458 5456 5455 5454 5451 5450 5447 5444 5441 5438 5436 5435 5433 5432 5430 5429 5427 5426 5425 5424 5423 5423 5422 5421 5419
5416 5420 5441 5460 5461 5463 5452 5462 5474 5471 5468 5463 5459 5458 5459 5458 5456 5454 5452 5450 5448 5446 5444 5443 5442 5439 5436 5433 5431 5429 5427 5425 5424 5422 5421 5419 5418 5417 5416 5414 5414 5413 5412 5411
5415 5416 5436 5451 5449 5449 5454 5462 5464 5463 5460 5456 5453 5452 5450 5448 5446 5444 5442 5441 5439 5437 5435 5434 5433 5430 5428 5426 5424 5421 5419 5417 5416 5414 5413 5412 5409 5408 5406 5405 5404 5403 5403 5402
5424 5434 5446 5446 5447 5450 5452 5451 5452 5450 5449 5446 5443 5440 5439 5437 5436 5435 5433 5432 5430 5428 5426 5425 5424 5422 5420 5419 5416 5414 5412 5410 5408 5407 5405 5404 5402 5400 5398 5396 5396 5395 5394 5394
5423 5435 5440 5441 5441 5443 5443 5441 5442 5440 5437 5436 5433 5431 5429 5428 5426 5425 5424 5423 5422 5419 5417 5416 5415 5414 5413 5411 5409 5407 5404 5403 5401 5399 5398 5396 5395 5393 5391 5390 5389 5388 5387 5386
5417 5427 5431 5435 5435 5435 5435 5434 5433 5432 5429 5427 5425 5423 5422 5420 5419 5417 5417 5415 5413 5411 5410 5409 5408 5406 5405 5403 5401 5399 5397 5396 5394 5392 5390 5389 5388 5386 5385 5384 5383 5382 5381 5379
5420 5426 5422 5427 5430 5429 5427 5426 5425 5423 5422 5420 5418 5417 5415 5413 5412 5410 5408 5407 5405 5404 5403 5402 5400 5399 5398 5396 5394 5392 5390 5389 5387 5385 5383 5381 5380 5379 5379 5378 5378 5377 5375 5374
5421 5423 5422 5424 5424 5424 5421 5420 5419 5417 5415 5413 5412 5410 5408 5406 5405 5403 5401 5399 5398 5396 5395 5395 5393 5392 5391 5390 5388 5386 5383 5381 5379 5378 5376 5374 5373 5372 5371 5372 5371 5370 5370 5369
5417 5416 5415 5417 5416 5416 5414 5413 5411 5410 5409 5407 5406 5404 5401 5399 5397 5396 5394 5393 5391 5390 5388 5388 5386 5385 5384 5383 5381 5379 5376 5375 5373 5371 5369 5368 5367 5365 5364 5364 5363 5363 5364 5363
5411 5410 5409 5409 5409 5408 5406 5404 5402 5401 5400 5399 5398 5396 5394 5392 5390 5389 5387 5386 5384 5382 5381 5380 5379 5379 5377 5376 5374 5372 5370 5368 5366 5365 5364 5362 5361 5360 5359 5358 5357 5356 5356 5356
5403 5402 5401 5400 5400 5400 5398 5397 5395 5394 5393 5392 5390 5388 5387 5385 5383 5382 5380 5378 5376 5375 5375 5374 5373 5373 5371 5370 5368 5366 5365 5364 5362 5360 5358 5357 5355 5354 5353 5352 5351 5350 5349 5349
5394 5394 5394 5393 5392 5391 5390 5389 5388 5387 5386 5385 5383 5382 5379 5377 5375 5374 5372 5371 5370 5369 5369 5368 5368 5367 5366 5364 5362 5360 5359 5358 5357 5355 5353 5351 5350 5348 5348 5346 5345 5344 5343 5342
5391 5390 5389 5387 5385 5385 5384 5383 5381 5380 5379 5378 5376 5374 5372 5370 5369 5367 5366 5364 5363 5363 5363 5362 5362 5361 5360 5358 5356 5355 5353 5352 5350 5349 5347 5346 5344 5343 5342 5340 5339 5338 5337 5336
5384 5383 5382 5381 5380 5379 5377 5376 5375 5374 5372 5371 5369 5367 5366 5363 5362 5361 5359 5358 5357 5356 5357 5357 5357 5355 5354 5353 5351 5349 5347 5346 5344 5343 5342 5341 5339 5337 5336 5334 5333 5332 5331 5330
5377 5375 5374 5373 5373 5371 5370 5369 5368 5367 5366 5364 5362 5360 5358 5357 5355 5354 5352 5351 5351 5351 5351 5351 5350 5348 5347 5346 5345 5342 5341 5340 5338 5337 5336 5334 5333 5331 5330 5328 5327 5326 5325 5324
5367 5366 5365 5364 5364 5364 5363 5362 5361 5360 5358 5357 5355 5353 5351 5350 5348 5347 5346 5345 5345 5344 5344 5345 5343 5342 5341 5340 5339 5337 5335 5333 5332 5331 5329 5328 5327 5326 5324 5322 5321 5321 5320 5319
5358 5357 5357 5356 5355 5354 5353 5353 5352 5351 5350 5348 5346 5344 5343 5342 5341 5339 5338 5338 5338 5338 5338 5337 5336 5336 5335 5334 5332 5330 5329 5327 5326 5325 5324 5323 5322 5320 5319 5317 5316 5316 5315 5314
5349 5349 5348 5347 5346 5344 5343 5343 5343 5342 5341 5339 5338 5337 5336 5335 5335 5334 5332 5332 5332 5332 5331 5330 5331 5331 5330 5327 5325 5324 5322 5321 5320 5319 5318 5318 5317 5315 5314 5313 5312 5311 5310 5310
5340 5340 5339 5337 5336 5335 5334 5334 5333 5333 5332 5331 5330 5330 5329 5329 5327 5327 5326 5326 5327 5326 5324 5324 5325 5324 5323 5320 5319 5317 5316 5315 5314 5313 5312 5312 5311 5310 5309 5308 5307 5306 5306 5306
5331 5331 5330 5329 5329 5328 5327 5326 5325 5324 5324 5323 5322 5323 5322 5322 5322 5320 5319 5319 5320 5319 5318 5317 5318 5317 5315 5313 5312 5310 5309 5308 5308 5307 5306 5305 5305 5305 5304 5303 5302 5302 5301 5301
5323 5322 5322 5322 5322 5321 5321 5320 5319 5319 5318 5317 5316 5316 5315 5315 5315 5314 5313 5312 5312 5312 5311 5310 5309 5308 5307 5306 5304 5303 5302 5302 5301 5300 5300 5299 5299 5298 5298 5298 5297 5297 5297 5297
5316 5316 5315 5315 5315 5315 5314 5313 5313 5312 5311 5311 5310 5309 5309 5308 5308 5307 5306 5305 5305 5304 5303 5303 5302 5300 5299 5298 5297 5296 5295 5295 5294 5293 5293 5293 5293 5292 5292 5292 5292 5292 5292 5292